contact:dominique.lefevre@mio.osupytheas.fr, maurice.libes@osupytheas.fr, didier.mallarino@osupytheas.fr
Project:EMSO http://www.emso-fr.org/EMSO-France
Depth: 2436.0 m
Title:EMSO Ligure Ouest : Data MII capteur CSTAR
DateTime,Latitude,Longitude,Instrument_Serial,Reference_Counts,Signal_Counts,Corrected_Signal_raw_counts,Calculated_Beam_c_inverse_meters,Internal_thermistor_counts
DateTime,Latitude,Longitude,Instrument_Serial,Reference_Counts,Signal_Counts,Corrected_Signal_raw_counts,Calculated_Beam_c_inverse_meters,Internal_thermistor_counts
2020-05-03T00:02:29,42.805,6.029,CST-1368DR,6379,8945,15183,0.112,551
2020-05-03T00:05:31,42.805,6.029,CST-1368DR,6380,8945,15180,0.113,551
2020-05-03T00:08:33,42.805,6.029,CST-1368DR,6380,8944,15179,0.114,551
2020-05-03T00:11:35,42.805,6.029,CST-1368DR,6380,8943,15177,0.114,551
2020-05-03T00:14:36,42.805,6.029,CST-1368DR,6380,8942,15176,0.114,551
2020-05-03T00:17:38,42.805,6.029,CST-1368DR,6379,8944,15181,0.113,551
2020-05-03T00:20:40,42.805,6.029,CST-1368DR,6380,8944,15179,0.114,551
2020-05-03T00:23:41,42.805,6.029,CST-1368DR,6379,8944,15182,0.113,551
2020-05-03T00:26:43,42.805,6.029,CST-1368DR,6379,8941,15176,0.114,551
2020-05-03T00:29:45,42.805,6.029,CST-1368DR,6380,8944,15180,0.113,551
2020-05-03T00:32:46,42.805,6.029,CST-1368DR,6380,8943,15177,0.114,551
2020-05-03T00:35:48,42.805,6.029,CST-1368DR,6380,8944,15179,0.114,551
2020-05-03T00:38:50,42.805,6.029,CST-1368DR,6379,8942,15179,0.114,551
2020-05-03T00:41:51,42.805,6.029,CST-1368DR,6379,8944,15181,0.113,551
2020-05-03T00:44:53,42.805,6.029,CST-1368DR,6379,8944,15182,0.113,551
2020-05-03T00:47:55,42.805,6.029,CST-1368DR,6379,8943,15180,0.113,551
2020-05-03T00:50:57,42.805,6.029,CST-1368DR,6379,8943,15180,0.113,551
2020-05-03T00:53:58,42.805,6.029,CST-1368DR,6379,8944,15182,0.113,551
2020-05-03T00:57:00,42.805,6.029,CST-1368DR,6379,8944,15182,0.113,551
2020-05-03T01:00:02,42.805,6.029,CST-1368DR,6379,8944,15181,0.113,550
2020-05-03T01:03:03,42.805,6.029,CST-1368DR,6379,8938,15171,0.116,551
2020-05-03T01:06:05,42.805,6.029,CST-1368DR,6379,8944,15182,0.113,551
2020-05-03T01:09:07,42.805,6.029,CST-1368DR,6379,8942,15179,0.114,551
2020-05-03T01:12:08,42.805,6.029,CST-1368DR,6379,8944,15181,0.113,551
2020-05-03T01:15:10,42.805,6.029,CST-1368DR,6379,8943,15180,0.113,551
2020-05-03T01:18:12,42.805,6.029,CST-1368DR,6379,8943,15180,0.113,551
2020-05-03T01:21:13,42.805,6.029,CST-1368DR,6379,8944,15181,0.113,551
2020-05-03T01:24:15,42.805,6.029,CST-1368DR,6379,8944,15181,0.113,551
2020-05-03T01:27:17,42.805,6.029,CST-1368DR,6379,8944,15182,0.113,551
2020-05-03T01:30:18,42.805,6.029,CST-1368DR,6379,8943,15179,0.114,551
2020-05-03T01:33:20,42.805,6.029,CST-1368DR,6379,8944,15181,0.113,551
2020-05-03T01:36:22,42.805,6.029,CST-1368DR,6379,8944,15181,0.113,551
2020-05-03T01:39:23,42.805,6.029,CST-1368DR,6379,8943,15180,0.113,551
2020-05-03T01:42:25,42.805,6.029,CST-1368DR,6379,8943,15180,0.113,551
2020-05-03T01:45:27,42.805,6.029,CST-1368DR,6379,8943,15180,0.113,551
2020-05-03T01:48:29,42.805,6.029,CST-1368DR,6379,8942,15177,0.114,551
2020-05-03T01:51:31,42.805,6.029,CST-1368DR,6379,8943,15180,0.113,551
2020-05-03T01:54:32,42.805,6.029,CST-1368DR,6379,8942,15178,0.114,551
2020-05-03T01:57:34,42.805,6.029,CST-1368DR,6379,8944,15182,0.113,551
2020-05-03T02:00:36,42.805,6.029,CST-1368DR,6379,8942,15178,0.114,551
2020-05-03T02:03:37,42.805,6.029,CST-1368DR,6379,8942,15179,0.114,551
2020-05-03T02:06:39,42.805,6.029,CST-1368DR,6379,8943,15180,0.113,551
2020-05-03T02:09:41,42.805,6.029,CST-1368DR,6379,8943,15180,0.113,550
2020-05-03T02:12:42,42.805,6.029,CST-1368DR,6379,8944,15181,0.113,551
2020-05-03T02:15:44,42.805,6.029,CST-1368DR,6379,8944,15181,0.113,551
2020-05-03T02:18:46,42.805,6.029,CST-1368DR,6379,8942,15179,0.114,551
2020-05-03T02:21:48,42.805,6.029,CST-1368DR,6379,8942,15179,0.114,551
2020-05-03T02:24:49,42.805,6.029,CST-1368DR,6379,8943,15180,0.113,550
2020-05-03T02:27:51,42.805,6.029,CST-1368DR,6379,8943,15180,0.113,551
2020-05-03T02:30:53,42.805,6.029,CST-1368DR,6379,8943,15179,0.114,551
2020-05-03T02:33:54,42.805,6.029,CST-1368DR,6379,8941,15177,0.114,551
2020-05-03T02:36:56,42.805,6.029,CST-1368DR,6379,8943,15179,0.114,551
2020-05-03T02:39:58,42.805,6.029,CST-1368DR,6379,8943,15179,0.114,551
2020-05-03T02:42:59,42.805,6.029,CST-1368DR,6379,8942,15179,0.114,551
2020-05-03T02:46:01,42.805,6.029,CST-1368DR,6379,8942,15178,0.114,551
2020-05-03T02:49:03,42.805,6.029,CST-1368DR,6379,8941,15177,0.114,551
2020-05-03T02:52:05,42.805,6.029,CST-1368DR,6379,8942,15179,0.114,551
2020-05-03T02:55:06,42.805,6.029,CST-1368DR,6379,8942,15179,0.114,551
2020-05-03T02:58:08,42.805,6.029,CST-1368DR,6379,8941,15177,0.114,551
2020-05-03T03:01:10,42.805,6.029,CST-1368DR,6379,8943,15179,0.114,551
2020-05-03T03:04:11,42.805,6.029,CST-1368DR,6379,8939,15174,0.115,551
2020-05-03T03:07:13,42.805,6.029,CST-1368DR,6379,8942,15179,0.114,551
2020-05-03T03:10:15,42.805,6.029,CST-1368DR,6379,8943,15180,0.113,551
2020-05-03T03:13:16,42.805,6.029,CST-1368DR,6379,8943,15180,0.113,551
2020-05-03T03:16:18,42.805,6.029,CST-1368DR,6379,8942,15178,0.114,551
2020-05-03T03:19:20,42.805,6.029,CST-1368DR,6379,8943,15180,0.113,551
2020-05-03T03:22:22,42.805,6.029,CST-1368DR,6379,8942,15177,0.114,551
2020-05-03T03:25:24,42.805,6.029,CST-1368DR,6379,8943,15179,0.114,550
2020-05-03T03:28:25,42.805,6.029,CST-1368DR,6379,8942,15179,0.114,551
2020-05-03T03:31:27,42.805,6.029,CST-1368DR,6379,8942,15178,0.114,551
2020-05-03T03:34:29,42.805,6.029,CST-1368DR,6379,8943,15180,0.113,551
2020-05-03T03:37:31,42.805,6.029,CST-1368DR,6379,8942,15178,0.114,551
2020-05-03T03:40:32,42.805,6.029,CST-1368DR,6379,8943,15180,0.113,551
2020-05-03T03:43:34,42.805,6.029,CST-1368DR,6379,8941,15177,0.114,551
2020-05-03T03:46:36,42.805,6.029,CST-1368DR,6379,8941,15177,0.114,551
2020-05-03T03:49:37,42.805,6.029,CST-1368DR,6379,8940,15175,0.115,550
2020-05-03T03:52:39,42.805,6.029,CST-1368DR,6379,8942,15179,0.114,551
2020-05-03T03:55:41,42.805,6.029,CST-1368DR,6379,8942,15178,0.114,551
2020-05-03T03:58:43,42.805,6.029,CST-1368DR,6379,8942,15178,0.114,551
2020-05-03T04:01:44,42.805,6.029,CST-1368DR,6379,8939,15174,0.115,551
2020-05-03T04:04:46,42.805,6.029,CST-1368DR,6379,8942,15178,0.114,551
2020-05-03T04:07:48,42.805,6.029,CST-1368DR,6379,8941,15176,0.114,551
2020-05-03T04:10:50,42.805,6.029,CST-1368DR,6379,8942,15178,0.114,551
2020-05-03T04:13:51,42.805,6.029,CST-1368DR,6379,8944,15181,0.113,551
2020-05-03T04:16:53,42.805,6.029,CST-1368DR,6379,8943,15180,0.113,551
2020-05-03T04:19:55,42.805,6.029,CST-1368DR,6379,8942,15178,0.114,551
2020-05-03T04:22:56,42.805,6.029,CST-1368DR,6379,8942,15179,0.114,551
2020-05-03T04:25:58,42.805,6.029,CST-1368DR,6379,8940,15175,0.115,551
2020-05-03T04:29:00,42.805,6.029,CST-1368DR,6379,8942,15179,0.114,551
2020-05-03T04:32:01,42.805,6.029,CST-1368DR,6379,8941,15177,0.114,551
2020-05-03T04:35:03,42.805,6.029,CST-1368DR,6379,8942,15178,0.114,551
2020-05-03T04:38:05,42.805,6.029,CST-1368DR,6379,8942,15178,0.114,551
2020-05-03T04:41:06,42.805,6.029,CST-1368DR,6379,8942,15177,0.114,551
2020-05-03T04:44:08,42.805,6.029,CST-1368DR,6379,8942,15179,0.114,551
2020-05-03T04:47:10,42.805,6.029,CST-1368DR,6379,8942,15179,0.114,551
2020-05-03T04:50:11,42.805,6.029,CST-1368DR,6379,8941,15177,0.114,551
2020-05-03T04:53:13,42.805,6.029,CST-1368DR,6379,8943,15180,0.113,551
2020-05-03T04:56:15,42.805,6.029,CST-1368DR,6379,8942,15179,0.114,551
2020-05-03T04:59:17,42.805,6.029,CST-1368DR,6379,8941,15177,0.114,551
2020-05-03T05:02:18,42.805,6.029,CST-1368DR,6379,8942,15179,0.114,551
2020-05-03T05:05:20,42.805,6.029,CST-1368DR,6379,8942,15177,0.114,551
2020-05-03T05:08:22,42.805,6.029,CST-1368DR,6379,8941,15177,0.114,550
2020-05-03T05:11:23,42.805,6.029,CST-1368DR,6379,8942,15178,0.114,551
2020-05-03T05:14:25,42.805,6.029,CST-1368DR,6379,8943,15179,0.114,551
2020-05-03T05:17:27,42.805,6.029,CST-1368DR,6379,8943,15180,0.113,551
2020-05-03T05:20:29,42.805,6.029,CST-1368DR,6379,8942,15178,0.114,551
2020-05-03T05:23:31,42.805,6.029,CST-1368DR,6379,8943,15179,0.114,551
2020-05-03T05:26:32,42.805,6.029,CST-1368DR,6379,8943,15180,0.113,551
2020-05-03T05:29:34,42.805,6.029,CST-1368DR,6379,8942,15178,0.114,551
2020-05-03T05:32:36,42.805,6.029,CST-1368DR,6379,8943,15179,0.114,551
2020-05-03T05:35:37,42.805,6.029,CST-1368DR,6379,8941,15177,0.114,551
2020-05-03T05:38:39,42.805,6.029,CST-1368DR,6379,8942,15177,0.114,551
2020-05-03T05:41:41,42.805,6.029,CST-1368DR,6378,8942,15180,0.113,551
2020-05-03T05:44:43,42.805,6.029,CST-1368DR,6379,8943,15180,0.113,551
2020-05-03T05:47:44,42.805,6.029,CST-1368DR,6378,8943,15182,0.113,551
2020-05-03T05:50:46,42.805,6.029,CST-1368DR,6379,8941,15177,0.114,551
2020-05-03T05:53:48,42.805,6.029,CST-1368DR,6378,8942,15180,0.113,551
2020-05-03T05:56:49,42.805,6.029,CST-1368DR,6379,8943,15179,0.114,551
2020-05-03T05:59:51,42.805,6.029,CST-1368DR,6378,8942,15180,0.113,551
2020-05-03T06:02:53,42.805,6.029,CST-1368DR,6378,8939,15175,0.115,551
2020-05-03T06:05:54,42.805,6.029,CST-1368DR,6378,8942,15180,0.113,551
2020-05-03T06:08:56,42.805,6.029,CST-1368DR,6378,8942,15180,0.113,551
2020-05-03T06:11:58,42.805,6.029,CST-1368DR,6378,8942,15180,0.113,551
2020-05-03T06:14:59,42.805,6.029,CST-1368DR,6378,8942,15180,0.113,551
2020-05-03T06:18:01,42.805,6.029,CST-1368DR,6378,8941,15178,0.114,551
2020-05-03T06:21:03,42.805,6.029,CST-1368DR,6378,8942,15180,0.113,551
2020-05-03T06:24:05,42.805,6.029,CST-1368DR,6378,8942,15180,0.113,551
2020-05-03T06:27:06,42.805,6.029,CST-1368DR,6378,8942,15180,0.113,551
2020-05-03T06:30:08,42.805,6.029,CST-1368DR,6378,8942,15180,0.113,551
2020-05-03T06:33:10,42.805,6.029,CST-1368DR,6378,8942,15180,0.113,551
2020-05-03T06:36:12,42.805,6.029,CST-1368DR,6378,8942,15181,0.113,551
2020-05-03T06:39:13,42.805,6.029,CST-1368DR,6378,8942,15180,0.113,551
2020-05-03T06:42:15,42.805,6.029,CST-1368DR,6378,8941,15179,0.114,550
2020-05-03T06:45:17,42.805,6.029,CST-1368DR,6378,8942,15180,0.113,551
2020-05-03T06:48:18,42.805,6.029,CST-1368DR,6378,8941,15179,0.114,551
2020-05-03T06:51:20,42.805,6.029,CST-1368DR,6378,8941,15178,0.114,551
2020-05-03T06:54:22,42.805,6.029,CST-1368DR,6378,8942,15180,0.113,551
2020-05-03T06:57:23,42.805,6.029,CST-1368DR,6378,8942,15180,0.113,551
2020-05-03T07:00:25,42.805,6.029,CST-1368DR,6378,8940,15178,0.114,550
2020-05-03T07:03:27,42.805,6.029,CST-1368DR,6378,8942,15181,0.113,551
2020-05-03T07:06:28,42.805,6.029,CST-1368DR,6378,8942,15180,0.113,550
2020-05-03T07:09:30,42.805,6.029,CST-1368DR,6378,8942,15180,0.113,551
2020-05-03T07:12:32,42.805,6.029,CST-1368DR,6378,8941,15179,0.114,551
2020-05-03T07:15:34,42.805,6.029,CST-1368DR,6378,8942,15180,0.113,551
2020-05-03T07:18:35,42.805,6.029,CST-1368DR,6378,8941,15179,0.114,551
2020-05-03T07:21:37,42.805,6.029,CST-1368DR,6378,8941,15179,0.114,551
2020-05-03T07:24:39,42.805,6.029,CST-1368DR,6378,8940,15177,0.114,551
2020-05-03T07:27:40,42.805,6.029,CST-1368DR,6378,8941,15179,0.114,551
2020-05-03T07:30:42,42.805,6.029,CST-1368DR,6378,8940,15178,0.114,551
2020-05-03T07:33:44,42.805,6.029,CST-1368DR,6378,8940,15178,0.114,551
2020-05-03T07:36:46,42.805,6.029,CST-1368DR,6378,8941,15179,0.114,551
2020-05-03T07:39:47,42.805,6.029,CST-1368DR,6378,8942,15180,0.113,551
2020-05-03T07:42:49,42.805,6.029,CST-1368DR,6378,8941,15178,0.114,551
2020-05-03T07:45:51,42.805,6.029,CST-1368DR,6378,8941,15178,0.114,551
2020-05-03T07:48:52,42.805,6.029,CST-1368DR,6378,8939,15175,0.115,551
2020-05-03T07:51:54,42.805,6.029,CST-1368DR,6378,8941,15179,0.114,551
2020-05-03T07:54:56,42.805,6.029,CST-1368DR,6378,8939,15176,0.114,551
2020-05-03T07:57:58,42.805,6.029,CST-1368DR,6378,8940,15178,0.114,551
2020-05-03T08:00:59,42.805,6.029,CST-1368DR,6378,8940,15178,0.114,551
2020-05-03T08:04:01,42.805,6.029,CST-1368DR,6378,8940,15176,0.114,551
2020-05-03T08:07:03,42.805,6.029,CST-1368DR,6378,8939,15176,0.114,551
2020-05-03T08:10:04,42.805,6.029,CST-1368DR,6378,8941,15179,0.114,551
2020-05-03T08:13:06,42.805,6.029,CST-1368DR,6378,8941,15179,0.114,551
2020-05-03T08:16:08,42.805,6.029,CST-1368DR,6378,8940,15177,0.114,551
2020-05-03T08:19:09,42.805,6.029,CST-1368DR,6378,8941,15178,0.114,551
2020-05-03T08:22:11,42.805,6.029,CST-1368DR,6378,8939,15176,0.114,551
2020-05-03T08:25:13,42.805,6.029,CST-1368DR,6378,8941,15178,0.114,551
2020-05-03T08:28:15,42.805,6.029,CST-1368DR,6378,8940,15178,0.114,551
2020-05-03T08:31:16,42.805,6.029,CST-1368DR,6378,8940,15178,0.114,551
2020-05-03T08:34:18,42.805,6.029,CST-1368DR,6378,8939,15176,0.114,551
2020-05-03T08:37:20,42.805,6.029,CST-1368DR,6378,8940,15176,0.114,551
2020-05-03T08:40:21,42.805,6.029,CST-1368DR,6378,8940,15178,0.114,551
2020-05-03T08:43:23,42.805,6.029,CST-1368DR,6378,8941,15179,0.114,551
2020-05-03T08:46:25,42.805,6.029,CST-1368DR,6378,8940,15177,0.114,551
2020-05-03T08:49:26,42.805,6.029,CST-1368DR,6378,8940,15177,0.114,551
2020-05-03T08:52:28,42.805,6.029,CST-1368DR,6378,8941,15179,0.114,551
2020-05-03T08:55:30,42.805,6.029,CST-1368DR,6378,8939,15175,0.115,551
2020-05-03T08:58:32,42.805,6.029,CST-1368DR,6378,8938,15174,0.115,551
2020-05-03T09:01:33,42.805,6.029,CST-1368DR,6378,8938,15174,0.115,551
2020-05-03T09:04:35,42.805,6.029,CST-1368DR,6378,8941,15178,0.114,551
2020-05-03T09:07:37,42.805,6.029,CST-1368DR,6378,8940,15177,0.114,551
2020-05-03T09:10:38,42.805,6.029,CST-1368DR,6378,8937,15172,0.115,551
2020-05-03T09:13:40,42.805,6.029,CST-1368DR,6378,8942,15180,0.113,551
2020-05-03T09:16:42,42.805,6.029,CST-1368DR,6378,8939,15176,0.114,551
2020-05-03T09:19:43,42.805,6.029,CST-1368DR,6378,8941,15178,0.114,551
2020-05-03T09:22:45,42.805,6.029,CST-1368DR,6378,8939,15175,0.115,551
2020-05-03T09:25:47,42.805,6.029,CST-1368DR,6378,8941,15179,0.114,551
2020-05-03T09:28:49,42.805,6.029,CST-1368DR,6378,8941,15178,0.114,551
2020-05-03T09:31:50,42.805,6.029,CST-1368DR,6378,8940,15176,0.114,551
2020-05-03T09:34:52,42.805,6.029,CST-1368DR,6378,8940,15178,0.114,551
2020-05-03T09:37:54,42.805,6.029,CST-1368DR,6378,8941,15179,0.114,551
2020-05-03T09:40:56,42.805,6.029,CST-1368DR,6378,8940,15177,0.114,551
2020-05-03T09:43:57,42.805,6.029,CST-1368DR,6378,8941,15179,0.114,551
2020-05-03T09:46:59,42.805,6.029,CST-1368DR,6378,8940,15176,0.114,551
2020-05-03T09:50:01,42.805,6.029,CST-1368DR,6378,8941,15179,0.114,551
2020-05-03T09:53:02,42.805,6.029,CST-1368DR,6378,8941,15179,0.114,551
2020-05-03T09:56:04,42.805,6.029,CST-1368DR,6378,8942,15180,0.113,551
2020-05-03T09:59:06,42.805,6.029,CST-1368DR,6378,8939,15176,0.114,551
2020-05-03T10:02:07,42.805,6.029,CST-1368DR,6378,8941,15179,0.114,551
2020-05-03T10:05:09,42.805,6.029,CST-1368DR,6378,8941,15179,0.114,551
2020-05-03T10:08:11,42.805,6.029,CST-1368DR,6378,8941,15178,0.114,551
2020-05-03T10:11:13,42.805,6.029,CST-1368DR,6378,8941,15179,0.114,551
2020-05-03T10:14:14,42.805,6.029,CST-1368DR,6378,8941,15179,0.114,551
2020-05-03T10:17:16,42.805,6.029,CST-1368DR,6378,8941,15179,0.114,551
2020-05-03T10:20:18,42.805,6.029,CST-1368DR,6378,8940,15176,0.114,551
2020-05-03T10:23:19,42.805,6.029,CST-1368DR,6378,8941,15179,0.114,551
2020-05-03T10:26:21,42.805,6.029,CST-1368DR,6378,8940,15178,0.114,551
2020-05-03T10:29:23,42.805,6.029,CST-1368DR,6378,8941,15179,0.114,550
2020-05-03T10:32:24,42.805,6.029,CST-1368DR,6378,8941,15179,0.114,551
2020-05-03T10:35:26,42.805,6.029,CST-1368DR,6378,8940,15176,0.114,551
2020-05-03T10:38:28,42.805,6.029,CST-1368DR,6378,8940,15177,0.114,551
2020-05-03T10:41:29,42.805,6.029,CST-1368DR,6378,8940,15178,0.114,551
2020-05-03T10:44:31,42.805,6.029,CST-1368DR,6378,8941,15179,0.114,551
2020-05-03T10:47:33,42.805,6.029,CST-1368DR,6378,8941,15179,0.114,551
2020-05-03T10:50:35,42.805,6.029,CST-1368DR,6377,8939,15177,0.114,551
2020-05-03T10:53:36,42.805,6.029,CST-1368DR,6378,8941,15178,0.114,551
2020-05-03T10:56:38,42.805,6.029,CST-1368DR,6378,8941,15179,0.114,551
2020-05-03T10:59:40,42.805,6.029,CST-1368DR,6377,8941,15181,0.113,551
2020-05-03T11:02:42,42.805,6.029,CST-1368DR,6377,8941,15180,0.113,551
2020-05-03T11:05:43,42.805,6.029,CST-1368DR,6377,8941,15181,0.113,551
2020-05-03T11:08:45,42.805,6.029,CST-1368DR,6377,8940,15180,0.113,551
2020-05-03T11:11:47,42.805,6.029,CST-1368DR,6377,8941,15181,0.113,551
2020-05-03T11:14:48,42.805,6.029,CST-1368DR,6377,8940,15179,0.114,551
2020-05-03T11:17:50,42.805,6.029,CST-1368DR,6377,8939,15178,0.114,551
2020-05-03T11:20:52,42.805,6.029,CST-1368DR,6377,8939,15177,0.114,551
2020-05-03T11:23:53,42.805,6.029,CST-1368DR,6377,8940,15178,0.114,551
2020-05-03T11:26:55,42.805,6.029,CST-1368DR,6377,8939,15177,0.114,551
2020-05-03T11:29:57,42.805,6.029,CST-1368DR,6377,8939,15178,0.114,551
2020-05-03T11:32:59,42.805,6.029,CST-1368DR,6377,8940,15179,0.114,551
2020-05-03T11:36:00,42.805,6.029,CST-1368DR,6377,8939,15178,0.114,551
2020-05-03T11:39:02,42.805,6.029,CST-1368DR,6377,8940,15178,0.114,551
2020-05-03T11:42:04,42.805,6.029,CST-1368DR,6377,8941,15180,0.113,551
2020-05-03T11:45:05,42.805,6.029,CST-1368DR,6377,8941,15181,0.113,551
2020-05-03T11:48:07,42.805,6.029,CST-1368DR,6377,8940,15180,0.113,551
2020-05-03T11:51:09,42.805,6.029,CST-1368DR,6377,8941,15180,0.113,551
2020-05-03T11:54:10,42.805,6.029,CST-1368DR,6377,8940,15180,0.113,551
2020-05-03T11:57:12,42.805,6.029,CST-1368DR,6377,8941,15181,0.113,551
2020-05-03T12:00:14,42.805,6.029,CST-1368DR,6377,8939,15178,0.114,551
2020-05-03T12:03:15,42.805,6.029,CST-1368DR,6377,8940,15179,0.114,551
2020-05-03T12:06:17,42.805,6.029,CST-1368DR,6377,8939,15178,0.114,551
2020-05-03T12:09:19,42.805,6.029,CST-1368DR,6377,8939,15178,0.114,551
2020-05-03T12:12:21,42.805,6.029,CST-1368DR,6377,8940,15180,0.113,551
2020-05-03T12:15:22,42.805,6.029,CST-1368DR,6377,8940,15180,0.113,551
2020-05-03T12:18:24,42.805,6.029,CST-1368DR,6377,8940,15180,0.113,551
2020-05-03T12:21:26,42.805,6.029,CST-1368DR,6377,8939,15178,0.114,551
2020-05-03T12:24:27,42.805,6.029,CST-1368DR,6377,8940,15180,0.113,551
2020-05-03T12:27:29,42.805,6.029,CST-1368DR,6377,8939,15178,0.114,551
2020-05-03T12:30:31,42.805,6.029,CST-1368DR,6377,8940,15178,0.114,551
2020-05-03T12:33:32,42.805,6.029,CST-1368DR,6377,8939,15178,0.114,551
2020-05-03T12:36:34,42.805,6.029,CST-1368DR,6377,8940,15178,0.114,551
2020-05-03T12:39:36,42.805,6.029,CST-1368DR,6377,8940,15180,0.113,551
2020-05-03T12:42:37,42.805,6.029,CST-1368DR,6377,8940,15179,0.114,551
2020-05-03T12:45:39,42.805,6.029,CST-1368DR,6377,8941,15180,0.113,551
2020-05-03T12:48:41,42.805,6.029,CST-1368DR,6377,8941,15181,0.113,551
2020-05-03T12:51:43,42.805,6.029,CST-1368DR,6377,8941,15181,0.113,551
2020-05-03T12:54:44,42.805,6.029,CST-1368DR,6377,8940,15178,0.114,551
2020-05-03T12:57:46,42.805,6.029,CST-1368DR,6377,8939,15177,0.114,551
2020-05-03T13:00:48,42.805,6.029,CST-1368DR,6377,8939,15178,0.114,551
2020-05-03T13:03:49,42.805,6.029,CST-1368DR,6377,8940,15179,0.114,551
2020-05-03T13:06:51,42.805,6.029,CST-1368DR,6377,8940,15179,0.114,551
2020-05-03T13:09:53,42.805,6.029,CST-1368DR,6377,8940,15178,0.114,551
2020-05-03T13:12:54,42.805,6.029,CST-1368DR,6377,8939,15178,0.114,551
2020-05-03T13:15:56,42.805,6.029,CST-1368DR,6377,8939,15178,0.114,551
2020-05-03T13:18:58,42.805,6.029,CST-1368DR,6377,8937,15174,0.115,551
2020-05-03T13:21:59,42.805,6.029,CST-1368DR,6377,8940,15180,0.113,551
2020-05-03T13:25:01,42.805,6.029,CST-1368DR,6377,8940,15179,0.114,551
2020-05-03T13:28:03,42.805,6.029,CST-1368DR,6377,8940,15179,0.114,551
2020-05-03T13:31:04,42.805,6.029,CST-1368DR,6377,8939,15177,0.114,551
2020-05-03T13:34:06,42.805,6.029,CST-1368DR,6377,8941,15180,0.113,551
2020-05-03T13:37:08,42.805,6.029,CST-1368DR,6377,8940,15178,0.114,551
2020-05-03T13:40:10,42.805,6.029,CST-1368DR,6377,8939,15178,0.114,551
2020-05-03T13:43:11,42.805,6.029,CST-1368DR,6377,8940,15179,0.114,551
2020-05-03T13:46:13,42.805,6.029,CST-1368DR,6377,8939,15178,0.114,551
2020-05-03T13:49:15,42.805,6.029,CST-1368DR,6377,8939,15177,0.114,551
2020-05-03T13:52:16,42.805,6.029,CST-1368DR,6377,8939,15178,0.114,551
2020-05-03T13:55:18,42.805,6.029,CST-1368DR,6377,8938,15176,0.114,551
2020-05-03T13:58:20,42.805,6.029,CST-1368DR,6377,8940,15179,0.114,551
2020-05-03T14:01:21,42.805,6.029,CST-1368DR,6377,8940,15178,0.114,551
2020-05-03T14:04:23,42.805,6.029,CST-1368DR,6377,8940,15178,0.114,551
2020-05-03T14:07:25,42.805,6.029,CST-1368DR,6377,8940,15179,0.114,551
2020-05-03T14:10:27,42.805,6.029,CST-1368DR,6377,8939,15178,0.114,551
2020-05-03T14:13:28,42.805,6.029,CST-1368DR,6377,8936,15172,0.115,551
2020-05-03T14:16:30,42.805,6.029,CST-1368DR,6377,8939,15178,0.114,551
2020-05-03T14:19:32,42.805,6.029,CST-1368DR,6377,8939,15178,0.114,551
2020-05-03T14:22:34,42.805,6.029,CST-1368DR,6377,8940,15179,0.114,551
2020-05-03T14:25:35,42.805,6.029,CST-1368DR,6377,8937,15174,0.115,551
2020-05-03T14:28:37,42.805,6.029,CST-1368DR,6377,8940,15180,0.113,551
2020-05-03T14:31:39,42.805,6.029,CST-1368DR,6377,8939,15177,0.114,551
2020-05-03T14:34:40,42.805,6.029,CST-1368DR,6377,8938,15176,0.114,551
2020-05-03T14:37:42,42.805,6.029,CST-1368DR,6377,8941,15181,0.113,551
2020-05-03T14:40:44,42.805,6.029,CST-1368DR,6377,8940,15178,0.114,551
2020-05-03T14:43:46,42.805,6.029,CST-1368DR,6377,8937,15174,0.115,551
2020-05-03T14:46:47,42.805,6.029,CST-1368DR,6377,8940,15180,0.113,551
2020-05-03T14:49:49,42.805,6.029,CST-1368DR,6377,8939,15178,0.114,551
2020-05-03T14:52:51,42.805,6.029,CST-1368DR,6377,8937,15175,0.115,551
2020-05-03T14:55:53,42.805,6.029,CST-1368DR,6377,8938,15176,0.114,550
2020-05-03T14:58:54,42.805,6.029,CST-1368DR,6377,8939,15178,0.114,551
2020-05-03T15:01:56,42.805,6.029,CST-1368DR,6377,8939,15178,0.114,551
2020-05-03T15:04:58,42.805,6.029,CST-1368DR,6377,8939,15178,0.114,551
2020-05-03T15:07:59,42.805,6.029,CST-1368DR,6377,8939,15177,0.114,551
2020-05-03T15:11:01,42.805,6.029,CST-1368DR,6377,8939,15177,0.114,551
2020-05-03T15:14:03,42.805,6.029,CST-1368DR,6377,8939,15177,0.114,551
2020-05-03T15:17:04,42.805,6.029,CST-1368DR,6377,8939,15178,0.114,551
2020-05-03T15:20:06,42.805,6.029,CST-1368DR,6377,8940,15180,0.113,551
2020-05-03T15:23:08,42.805,6.029,CST-1368DR,6377,8939,15177,0.114,551
2020-05-03T15:26:10,42.805,6.029,CST-1368DR,6376,8940,15181,0.113,551
2020-05-03T15:29:11,42.805,6.029,CST-1368DR,6377,8938,15175,0.115,551
2020-05-03T15:32:13,42.805,6.029,CST-1368DR,6377,8940,15178,0.114,551
2020-05-03T15:35:15,42.805,6.029,CST-1368DR,6377,8939,15178,0.114,550
2020-05-03T15:38:16,42.805,6.029,CST-1368DR,6376,8929,15162,0.118,551
2020-05-03T15:41:18,42.805,6.029,CST-1368DR,6377,8938,15176,0.114,551
2020-05-03T15:44:20,42.805,6.029,CST-1368DR,6377,8939,15178,0.114,551
2020-05-03T15:47:22,42.805,6.029,CST-1368DR,6376,8941,15182,0.113,551
2020-05-03T15:50:23,42.805,6.029,CST-1368DR,6377,8938,15176,0.114,551
2020-05-03T15:53:25,42.805,6.029,CST-1368DR,6376,8932,15168,0.116,551
2020-05-03T15:56:27,42.805,6.029,CST-1368DR,6376,8936,15174,0.115,551
2020-05-03T15:59:28,42.805,6.029,CST-1368DR,6376,8938,15179,0.114,551
2020-05-03T16:02:30,42.805,6.029,CST-1368DR,6376,8936,15175,0.115,551
2020-05-03T16:05:32,42.805,6.029,CST-1368DR,6376,8939,15179,0.114,551
2020-05-03T16:08:34,42.805,6.029,CST-1368DR,6376,8938,15177,0.114,551
2020-05-03T16:11:35,42.805,6.029,CST-1368DR,6376,8939,15179,0.114,550
2020-05-03T16:14:37,42.805,6.029,CST-1368DR,6376,8940,15181,0.113,551
2020-05-03T16:17:39,42.805,6.029,CST-1368DR,6376,8939,15180,0.113,551
2020-05-03T16:20:40,42.805,6.029,CST-1368DR,6376,8937,15177,0.114,551
2020-05-03T16:23:42,42.805,6.029,CST-1368DR,6376,8939,15179,0.114,551
2020-05-03T16:26:44,42.805,6.029,CST-1368DR,6376,8939,15179,0.114,551
2020-05-03T16:29:45,42.805,6.029,CST-1368DR,6376,8938,15178,0.114,551
2020-05-03T16:32:47,42.805,6.029,CST-1368DR,6376,8938,15178,0.114,551
2020-05-03T16:35:49,42.805,6.029,CST-1368DR,6376,8939,15179,0.114,551
2020-05-03T16:38:51,42.805,6.029,CST-1368DR,6376,8940,15181,0.113,550
2020-05-03T16:41:52,42.805,6.029,CST-1368DR,6376,8939,15180,0.113,551
2020-05-03T16:44:54,42.805,6.029,CST-1368DR,6376,8937,15176,0.114,550
2020-05-03T16:47:56,42.805,6.029,CST-1368DR,6376,8934,15171,0.116,551
2020-05-03T16:50:58,42.805,6.029,CST-1368DR,6376,8938,15178,0.114,551
2020-05-03T16:53:59,42.805,6.029,CST-1368DR,6376,8939,15180,0.113,551